Girona Airport

Jump to: basic info | weather | frequencies | runways | comments

Related pages: nearby airports | nearby navaids | notams | map

Basic information (top)

Codes: GRO LEGE
Location: lon 41.901001, lat 2.760550, elev 468 ft / 143 m msl
Status: medium_airport
Scheduled airline service: yes
Links: Wikipedia Mobile

Weather (top)

Current conditions (rec'd 2014/11/26 23:30Z):

LEGE 262330Z VRB01KT 8000 FEW005 08/08 Q1009

Airport forecast (rec'd 2014/11/26 18:27Z):

TAF LEGE 261700Z 2618/2718 19004KT 9999 SCT020 TX18/2714Z TN07/2706Z 
      TEMPO 2622/2709 4000 BR BKN010 PROB40 
      TEMPO 2701/2709 0500 FG VV002

Frequencies (top)

Verify before use: may be inaccurate or out of date.

APP: 120.9 MHz (APP)
GND: 121.7 MHz (GND)
TWR: 118.5 MHz (TWR)

Runways (top)

02/20: 7,874 x 148 ft (2,400 x 45 m) — paved — lighted

Latest comments (top)

No comments yet for Girona Airport

More... (top)

See also NOTAMs and nearby airports and navaids, or visit the Girona Airport page at the main OurAirports website..